DW4212 Weather Reports


Display with metric or nautical units.
time (UTC)temp
F
wind
direction
speed
MPH
gust
MPH
rain 1hr
in
rain 24hr
in
rain mn
in
humidity
%
barometer
mb
20260507023919 49 65 0.0 0.0 0.00 0.04 0.00 76 1012.2
20260507022923 49 65 0.0 0.0 0.00 0.04 0.00 75 1012.2
20260507022013 49 65 0.0 0.0 0.00 0.04 0.00 75 1012.3
20260507021916 49 65 0.0 0.0 0.00 0.04 0.00 75 1012.3
20260507020925 49 65 0.0 0.0 0.00 0.04 0.00 75 1012.3
20260507015926 49 65 0.0 0.0 0.00 0.04 0.00 75 1012.3
20260507014917 48 65 0.0 0.0 0.00 0.04 0.00 75 1012.3
20260507013927 48 65 0.0 0.0 0.00 0.04 0.00 75 1012.3
20260507012928 48 65 0.0 0.0 0.00 0.04 0.00 74 1012.3
20260507011917 49 65 0.0 4.0 0.00 0.04 0.00 73 1012.3
20260507010926 49 65 0.0 4.0 0.00 0.04 0.00 72 1012.4
20260507005929 50 65 0.0 3.0 0.00 0.04 0.00 71 1012.5
20260507004917 50 66 0.0 5.0 0.00 0.04 0.00 70 1012.4
20260507003925 50 65 1.0 5.0 0.00 0.04 0.00 70 1012.4
20260507002925 50 66 1.0 7.0 0.00 0.04 0.00 71 1012.3
20260507001913 50 67 2.0 8.0 0.00 0.04 0.00 70 1012.4
20260507000922 50 69 2.0 8.0 0.00 0.04 0.00 69 1012.4
20260506235927 50 71 1.0 7.0 0.00 0.04 0.01 68 1012.3
20260506234915 49 73 2.0 8.0 0.00 0.04 0.01 69 1012.4
20260506233925 49 172 0.0 0.0 0.00 0.04 0.01 70 1012.3
20260506232923 47 175 0.0 3.0 0.00 0.04 0.01 71 1012.2
20260506231912 47 176 0.0 0.0 0.00 0.04 0.01 72 1012.1
20260506230926 47 176 0.0 0.0 0.00 0.04 0.01 73 1012.0
20260506225928 46 176 0.0 0.0 0.00 0.04 0.01 74 1012.0
20260506224917 47 176 0.0 0.0 0.00 0.04 0.01 72 1012.1
20260506223926 47 176 0.0 0.0 0.00 0.04 0.01 72 1012.1
20260506222926 48 176 0.0 0.0 0.00 0.04 0.01 71 1012.1
20260506221915 48 176 0.0 0.0 0.00 0.04 0.01 70 1012.0
20260506220928 48 176 0.0 0.0 0.00 0.04 0.01 69 1012.0
20260506220010 49 176 0.0 0.0 0.00 0.04 0.01 68 1012.1
20260506214911 49 176 0.0 0.0 0.00 0.04 0.01 68 1012.2
20260506213919 49 176 0.0 0.0 0.00 0.04 0.01 67 1012.1
20260506212922 49 176 0.0 0.0 0.00 0.04 0.01 65 1012.2
20260506211911 50 176 0.0 0.0 0.00 0.04 0.01 65 1012.2
20260506210924 50 176 0.0 0.0 0.00 0.04 0.01 65 1012.2
20260506205927 50 176 0.0 0.0 0.00 0.04 0.01 63 1012.2
20260506204913 50 176 0.0 0.0 0.00 0.04 0.01 62 1012.1
20260506203922 51 176 0.0 0.0 0.00 0.04 0.01 60 1012.0
20260506202923 52 176 0.0 0.0 0.00 0.04 0.01 59 1012.0
20260506201912 52 176 0.0 0.0 0.00 0.04 0.01 58 1012.0
20260506200922 53 176 0.0 0.0 0.00 0.04 0.01 55 1011.9
20260506195925 54 176 0.0 0.0 0.00 0.04 0.01 57 1011.9
20260506193929 55 176 0.0 0.0 0.00 0.04 0.01 55 1011.7
20260506192916 56 176 0.0 0.0 0.00 0.04 0.01 53 1011.7
20260506191925 57 176 0.0 0.0 0.00 0.04 0.01 52 1011.7
20260506190913 58 176 0.0 0.0 0.00 0.04 0.01 52 1011.6
20260506185915 58 176 0.0 0.0 0.00 0.04 0.01 52 1011.4
20260506184927 60 176 0.0 0.0 0.00 0.04 0.01 50 1011.3
20260506183916 60 176 0.0 0.0 0.00 0.04 0.01 48 1011.3
20260506182919 61 176 0.0 0.0 0.00 0.04 0.01 48 1011.3
20260506181928 62 176 0.0 0.0 0.00 0.04 0.01 46 1011.2
20260506180917 61 176 0.0 0.0 0.00 0.04 0.01 47 1011.2
20260506175920 61 176 0.0 0.0 0.00 0.04 0.01 44 1011.1
20260506174928 61 176 0.0 0.0 0.00 0.04 0.01 44 1011.2
20260506173917 61 176 0.0 0.0 0.00 0.04 0.01 45 1011.2
20260506172920 62 176 0.0 3.0 0.00 0.04 0.01 44 1011.3
20260506171930 62 176 1.0 6.0 0.00 0.04 0.01 42 1011.2
20260506170917 63 176 2.0 5.0 0.00 0.04 0.01 41 1011.3
20260506165919 64 176 0.0 4.0 0.00 0.04 0.01 42 1011.2
20260506164926 65 176 0.0 0.0 0.00 0.04 0.01 39 1011.3
20260506163913 64 176 0.0 5.0 0.00 0.04 0.01 40 1011.3
20260506162920 65 176 0.0 6.0 0.00 0.04 0.01 40 1011.3
20260506161929 65 176 1.0 6.0 0.00 0.04 0.01 42 1011.3
20260506160919 65 175 0.0 4.0 0.00 0.04 0.01 43 1011.3
20260506155922 64 175 1.0 7.0 0.00 0.04 0.01 44 1011.3
20260506154912 62 173 0.0 4.0 0.00 0.04 0.01 44 1011.4
20260506153921 62 173 0.0 0.0 0.00 0.04 0.01 43 1011.3
20260506153006 64 173 2.0 7.0 0.00 0.04 0.01 41 1011.6
20260506151929 63 164 1.0 9.0 0.00 0.04 0.01 43 1011.6
20260506150918 64 161 1.0 5.0 0.00 0.04 0.01 44 1011.7
20260506145926 64 161 2.0 7.0 0.00 0.04 0.01 43 1011.9
20260506144914 63 157 1.0 5.0 0.00 0.04 0.01 44 1011.9
20260506143922 63 157 1.0 7.0 0.00 0.04 0.01 44 1012.0
20260506142945 63 155 0.0 6.0 0.00 0.04 0.01 46 1012.1
20260506141933 62 153 2.0 5.0 0.00 0.04 0.01 48 1012.2
20260506140943 61 146 0.0 3.0 0.00 0.04 0.01 50 1012.4
20260506135945 60 148 0.0 0.0 0.00 0.04 0.01 50 1012.6
20260506134932 60 150 0.0 2.0 0.00 0.04 0.01 50 1012.6
20260506133939 60 151 0.0 6.0 0.00 0.04 0.01 50 1012.6
20260506132942 59 153 0.0 0.0 0.00 0.04 0.01 53 1012.7
20260506131931 57 153 0.0 3.0 0.00 0.04 0.01 53 1012.7
20260506130942 60 154 0.0 5.0 0.00 0.04 0.01 50 1012.8
20260506125943 59 153 0.0 5.0 0.00 0.04 0.01 52 1012.9
20260506124951 57 148 0.0 0.0 0.00 0.04 0.01 57 1013.0
20260506123939 58 148 0.0 6.0 0.00 0.04 0.01 52 1013.2
20260506122942 59 134 0.0 5.0 0.00 0.04 0.01 54 1013.2
20260506121934 57 78 0.0 4.0 0.00 0.04 0.01 56 1013.3
20260506120943 56 77 0.0 0.0 0.00 0.04 0.01 59 1013.4
20260506115947 56 74 0.0 0.0 0.00 0.04 0.01 58 1013.4
20260506114951 56 74 0.0 0.0 0.00 0.04 0.01 56 1013.4
20260506113938 56 74 0.0 3.0 0.00 0.04 0.01 57 1013.5
20260506112941 57 148 0.0 3.0 0.00 0.04 0.01 53 1013.5
20260506111934 59 195 1.0 4.0 0.00 0.04 0.01 54 1013.6
20260506110943 58 199 0.0 5.0 0.00 0.04 0.01 54 1013.6
20260506105946 57 165 1.0 5.0 0.00 0.04 0.01 59 1013.7
20260506104935 57 166 1.0 5.0 0.00 0.04 0.01 57 1013.8
20260506103944 57 150 1.0 7.0 0.00 0.04 0.01 55 1013.8
20260506102945 58 97 0.0 0.0 0.00 0.04 0.01 53 1013.8
20260506101938 57 94 0.0 0.0 0.00 0.04 0.01 58 1013.8
20260506100949 55 38 0.0 0.0 0.00 0.04 0.01 59 1014.0
20260506095948 55 38 0.0 0.0 0.00 0.04 0.01 60 1014.0
20260506094936 55 38 0.0 0.0 0.00 0.04 0.01 59 1014.1
20260506093946 55 38 0.0 0.0 0.04 0.04 0.01 59 1014.0
20260506092931 56 38 0.0 0.0 0.04 0.04 0.01 56 1014.0
20260506091936 56 39 0.0 2.0 0.04 0.04 0.01 56 1013.9
20260506090948 55 42 0.0 0.0 0.04 0.04 0.01 58 1014.0
20260506085950 54 42 0.0 0.0 0.04 0.04 0.01 58 1014.0
20260506084939 53 43 0.0 0.0 0.04 0.04 0.01 61 1013.8
20260506083932 52 43 0.0 0.0 0.00 0.00 0.00 61 1013.8
20260506082933 52 44 0.0 0.0 0.00 0.00 0.00 63 1013.8
20260506081941 51 44 1.0 6.0 0.00 0.00 0.00 67 1013.9
20260506080950 50 34 0.0 0.0 0.00 0.00 0.00 68 1013.8
20260506072949 48 22 0.0 4.0 0.00 0.00 0.00 74 1013.7
20260506071937 47 51 1.0 8.0 0.00 0.00 0.00 74 1013.6
20260506070946 47 32 0.0 5.0 0.00 0.00 0.00 75 1013.6
20260506061933 44 36 0.0 0.0 0.00 0.00 0.00 79 1013.3
20260506060940 44 34 0.0 0.0 0.00 0.00 0.00 80 1013.3
20260506050946 41 32 0.0 0.0 0.00 0.00 0.00 81 1012.8
20260506044933 41 32 0.0 2.0 0.00 0.00 0.00 82 1012.7
20260506043947 41 29 0.0 0.0 0.00 0.00 0.00 81 1012.8
20260506042947 41 29 0.0 0.0 0.00 0.00 0.00 81 1012.8
20260506041935 42 28 0.0 0.0 0.00 0.00 0.00 80 1012.8
20260506040944 42 29 0.0 0.0 0.00 0.00 0.00 80 1012.8
20260506035945 42 30 0.0 0.0 0.00 0.00 0.00 80 1012.9
20260506034950 42 31 0.0 0.0 0.00 0.00 0.00 79 1013.0
20260506033944 42 29 0.0 0.0 0.00 0.00 0.00 79 1013.0
20260506032946 43 26 0.0 0.0 0.00 0.00 0.00 78 1012.9
20260506031932 43 28 0.0 4.0 0.00 0.00 0.00 78 1013.0
20260506030942 43 342 0.0 0.0 0.00 0.00 0.00 78 1013.2
20260506025950 43 36 0.0 0.0 0.00 0.00 0.00 78 1013.1
20260506024942 43 34 0.0 0.0 0.00 0.00 0.00 77 1013.1